Content
SEND FEEDBACK

Daily
Averages
Monthly
Summary
Italy

TURIN, ITALY


Home > Europe > Italy
Elevation: 941 feet     Latitude: 45 13N     Longitude: 007 39E

WEATHER
 
SELECT A DAY
Number of Records: 310,175;   Date Range: 7/1/96 - 10/29/14
 
SHARE

PRINT THIS DATA

[ ← Previous Day ]
WEATHER ALMANAC - JULY 15, 2013
[ Next Day → ]
[ °C ]   °F
We're sorry. There is no daily almanac available for Turin, Italy on July 15, 2013.
WEATHER BY HOUR - JULY 15, 2013
[ °C ]   °F
Local TimeTemperatureDewpointHumidityBarometerVisibilityWind DirectionWind SpeedGust SpeedPrecipitationEventsConditions
12:50 AM71.6 °F59.0 °F64 %30.06 in6.2 miNNW (330°)6.9 mphPartly Cloudy
1:20 AM69.8 °F57.2 °F64 %30.09 in6.2 miNNE (20°)3.5 mphPartly Cloudy
1:50 AM68.0 °F57.2 °F68 %30.06 in6.2 miNNW (330°)3.5 mphPartly Cloudy
2:00 AM69.0 °F57.0 °F56 %30.06 in9.0 miNNW (330°)3.5 mphScattered Clouds
2:20 AM69.8 °F59.0 °F68 %30.06 in6.2 miNW (310°)6.9 mphPartly Cloudy
2:50 AM68.0 °F57.2 °F68 %30.06 inNW (310°)8.1 mphClear
3:20 AM68.0 °F55.4 °F64 %30.09 inNNW (330°)5.8 mphClear
3:50 AM68.0 °F57.2 °F68 %30.09 inNNW (330°)4.6 mphClear
4:20 AM66.2 °F55.4 °F68 %30.06 inNW (310°)4.6 mphClear
4:50 AM68.0 °F55.4 °F64 %30.09 inNW (310°)5.8 mphClear
5:00 AM68.0 °F56.0 °F56 %30.06 in9.0 miNW (320°)13.4 mph
5:20 AM66.2 °F55.4 °F68 %30.06 inNW (320°)4.6 mphClear
5:50 AM66.2 °F53.6 °F64 %30.06 inCalmClear
6:20 AM66.2 °F53.6 °F64 %30.09 inVariable2.3 mphClear
6:50 AM66.2 °F55.4 °F68 %30.06 inVariable2.3 mphClear
7:20 AM64.4 °F55.4 °F73 %30.06 inSW (230°)4.6 mphClear
7:50 AM68.0 °F57.2 °F68 %30.06 inNW (320°)5.8 mphClear
8:00 AM68.0 °F58.0 °F63 %30.06 in10.0 miNW (310°)3.5 mph
8:20 AM71.6 °F59.0 °F64 %30.06 inCalmClear
9:20 AM73.4 °F62.6 °F69 %30.06 inEast (90°)4.6 mphClear
9:50 AM73.4 °F62.6 °F69 %30.09 inEast (80°)6.9 mphClear
10:20 AM75.2 °F62.6 °F65 %30.09 inEast (80°)5.8 mphClear
10:50 AM78.8 °F60.8 °F54 %30.09 inEast (100°)3.5 mphClear
11:00 AM78.0 °F62.0 °F49 %30.05 in9.0 miNW (320°)4.5 mph
11:20 AM77.0 °F60.8 °F57 %30.09 inEast (80°)4.6 mphClear
11:50 AM78.8 °F60.8 °F54 %30.09 inEast (90°)5.8 mphClear
12:20 PM80.6 °F62.6 °F54 %30.09 inSE (130°)3.5 mphClear
12:50 PM80.6 °F62.6 °F54 %30.09 inSE (130°)5.8 mphClear
1:20 PM82.4 °F60.8 °F48 %30.09 inSE (130°)4.6 mphClear
1:50 PM82.4 °F64.4 °F54 %30.06 inSE (130°)6.9 mphClear
2:00 PM83.0 °F64.0 °F43 %30.02 in7.0 miEast (100°)4.6 mph
2:20 PM84.2 °F64.4 °F51 %30.06 inEast (100°)5.8 mphClear
2:50 PM86.0 °F64.4 °F48 %30.04 in6.2 miVariable1.2 mphPartly Cloudy
3:20 PM86.0 °F64.4 °F48 %30.01 in6.2 miEast (100°)3.5 mphPartly Cloudy
3:50 PM86.0 °F62.6 °F45 %30.04 in6.2 miVariable2.3 mphPartly Cloudy
4:20 PM86.0 °F60.8 °F43 %30.01 in6.2 miESE (110°)5.8 mphPartly Cloudy
4:50 PM86.0 °F59.0 °F40 %30.01 in6.2 miVariable1.2 mphPartly Cloudy
5:20 PM86.0 °F59.0 °F40 %30.01 in6.2 miVariable2.3 mphPartly Cloudy
5:50 PM87.8 °F60.8 °F40 %30.01 in6.2 miVariable3.5 mphPartly Cloudy
6:20 PM86.0 °F60.8 °F43 %30.01 in6.2 miEast (100°)3.5 mphPartly Cloudy
6:50 PM86.0 °F62.6 °F45 %30.01 inEast (90°)4.6 mphClear
7:20 PM86.0 °F64.4 °F48 %30.01 inENE (70°)3.5 mphClear
7:50 PM84.2 °F64.4 °F51 %30.01 inEast (100°)3.5 mphClear
8:00 PM84.0 °F66.0 °F44 %29.96 in12.0 miESE (110°)3.5 mph
8:20 PM84.2 °F55.4 °F37 %30.01 inCalmClear
8:50 PM84.2 °F51.8 °F33 %30.01 inCalmClear
9:20 PM82.4 °F51.8 °F35 %30.01 inWest (270°)3.5 mphClear
9:50 PM78.8 °F62.6 °F57 %30.01 inNorth (350°)3.5 mphClear
10:20 PM75.2 °F62.6 °F65 %30.04 inNNW (330°)5.8 mphClear
10:50 PM75.2 °F62.6 °F65 %30.04 inNW (310°)5.8 mphClear
11:20 PM75.2 °F60.8 °F61 %30.04 inNNW (340°)4.6 mphClear
11:50 PM73.4 °F59.0 °F61 %30.04 inCalmClear
Hourly data recorded from LIMF, located miles away from Turin, Italy







STORIES FROM OUR PARTNERS